Location: Hawks Ness
(60.2333°N, 1.1667°W)
Time: 22:16:37
(UTC+00:00)

Cosmos 1726 - Pass Details

Date: 25 January 2020
Orbit: 482 x 500 km, 82.5° (Epoch: 19 February)

Event Time Altitude Azimuth Distance (km) Brightness Sun altitude
Exits shadow 04:47:53 26° 120° (ESE) 1,007 4.1 -27.5°
Maximum altitude 04:48:50 29° 92° (E) 915 4.0 -27.4°
Drops below altitude 10° 04:52:04 10° 30° (NNE) 1,683 5.2 -27.0°
Sets 04:54:20 0° 20° (NNE) 2,567 6.1 -26.7°
